This demonstration page uses our WeatherBlox Daily Observations layout. Learn more.

Left ArrowRight Arrow

39.95238, -75.16362

Hourly Observations for February 3, 2017

Temp ( °F °C ) Dew Point ( °F °C ) Humidity (%) Winds ( mph kmh ) Pressure ( in mb ) Visibility ( mi km ) Precip ( " mm )
12:54 am 00:54 Mostly Cloudy 32 0 4 -15.6 30 30 NW 9 15 30.25 1024 10 16 0.00 0.00
1:54 am 01:54 Mostly Cloudy 31 -0.6 6 -14.4 35 35 NNW 10 17 30.24 1024 10 16 0.00 0.00
2:54 am 02:54 Mostly Cloudy 31 -0.6 7 -13.9 36 36 NNW 12 19 30.22 1024 10 16 0.00 0.00
3:54 am 03:54 Mostly Cloudy 30 -1.1 7 -13.9 38 38 NNW 5 7 30.24 1024 10 16 0.00 0.00
4:54 am 04:54 Mostly Cloudy 30 -1.1 8 -13.3 39 39 NNW 8 13 30.26 1025 10 16 0.00 0.00
5:54 am 05:54 Mostly Cloudy 29 -1.7 9 -12.8 43 43 NW 8 13 30.27 1025 10 16 0.00 0.00
6:54 am 06:54 Cloudy 29 -1.7 9 -12.8 43 43 NW 8 13 30.27 1025 10 16 0.00 0.00
7:54 am 07:54 Cloudy 29 -1.7 9 -12.8 43 43 W 7 11 30.29 1026 10 16 0.00 0.00
8:54 am 08:54 Cloudy 29 -1.7 10 -12.2 45 45 WNW 10 17 30.30 1026 10 16 0.00 0.00
9:54 am 09:54 Cloudy 30 -1.1 10 -12.2 43 43 NW 14 22 30.29 1026 10 16 0.00 0.00
10:54 am 10:54 Cloudy 31 -0.6 9 -12.8 40 40 WNW 15 24 30.26 1025 10 16 0.00 0.00
11:54 am 11:54 Cloudy 32 0 9 -12.8 38 38 NW 13 20 30.22 1023 10 16 0.00 0.00
12:54 pm 12:54 Cloudy 34 1.1 8 -13.3 34 34 W 14 22 30.18 1022 10 16 0.00 0.00
1:54 pm 13:54 Cloudy 35 1.7 7 -13.9 31 31 NW 10 17 30.15 1021 10 16 0.00 0.00
2:54 pm 14:54 Cloudy 34 1.1 7 -13.9 32 32 WNW 13 20 30.15 1021 10 16 0.00 0.00
3:54 pm 15:54 Cloudy 34 1.1 9 -12.8 35 35 W 14 22 30.14 1021 10 16 0.00 0.00
4:54 pm 16:54 Cloudy 33 0.6 7 -13.9 33 33 W 14 22 30.16 1021 10 16 0.00 0.00
5:54 pm 17:54 Cloudy 33 0.6 5 -15 30 30 WNW 15 24 30.18 1022 10 16 0.00 0.00
6:54 pm 18:54 Cloudy 32 0 6 -14.4 33 33 NW 13 20 30.21 1023 10 16 0.00 0.00
7:54 pm 19:54 Cloudy 31 -0.6 8 -13.3 38 38 NNW 13 20 30.22 1023 10 16 0.00 0.00
8:54 pm 20:54 Mostly Cloudy 31 -0.6 8 -13.3 38 38 NW 13 20 30.24 1024 10 16 0.00 0.00
9:54 pm 21:54 Partly Cloudy 30 -1.1 6 -14.4 36 36 NW 20 31 30.26 1025 10 16 0.00 0.00
10:54 pm 22:54 Partly Cloudy 29 -1.7 4 -15.6 34 34 NW 14 22 30.27 1025 10 16 0.00 0.00
11:54 pm 23:54 Partly Cloudy 28 -2.2 7 -13.9 41 41 NW 17 28 30.29 1026 10 16 0.00 0.00

Powered by AerisWeather